weather.gov     
National Weather Service

Terminal Aerodrome Forecast
NWS Homepage
This page is being discontinued on March 12, 2014.
The same data is available at this site. Please update your bookmarks.
Thank you, and we apologize for the inconvenience.
Please send an email to SR-SRH.Webmaster@noaa.gov with any concerns.


Current Version
Previous Version:    01  02  03  04  05  06  07  08  09  10  11  12  13  14  15  16  17  18  19  20  21  22  23  24  25  
[Printable]
809
FTUS42 KTBW 222300
TAFSRQ
TAF
KSRQ 222326Z 2300/2324 18010KT P6SM BKN250
     FM230200 17005KT P6SM FEW040 BKN250
     FM230600 16005KT 4SM BR FEW008 BKN035
     FM230900 15006KT 2SM BR SCT003 BKN012
     FM231500 15007KT 6SM BR SCT010 BKN035=


U.S. Dept. of Commerce
NOAA National Weather Service
1325 East West Highway
Silver Spring, MD 20910
E-mail: w-nws.webmaster@noaa.gov
Page last modified: May 16, 2007
NATIONAL WEATHER SERVICE: for Safety, for Work, for Fun - FOR LIFE